Regional Weather Roundup
Issued by NWS Mt. Holly, NJ

Home | Current Version | Previous Version | Text Only | Print | Product List | Glossary On
Versions: 1 2 3 4 5 6 7 8 9 10 11 12 13 14 15 16 17 18 19 20 21 22 23 24 25 26 27 28 29 30 31 32 33 34 35 36 37 38 39 40 41 42 43 44 45 46 47 48 49 50
000
ASUS41 KPHI 222012
RWRPHI

REGIONAL WEATHER ROUNDUP
NATIONAL WEATHER SERVICE MOUNT HOLLY NJ
400 PM EDT SUN OCT 22 2017

NOTE:  "FAIR" INDICATES FEW OR NO CLOUDS BELOW 12,000 FEET WITH NO
SIGNIFICANT WEATHER AND/OR OBSTRUCTIONS TO VISIBILITY.

 * = STATION DOES NOT REPORT PRECIPITATION (E.G. RAIN, SNOW, ETC.)
        OR FOG.

NJZ015>026-222100-
SOUTHERN NEW JERSEY

CITY           SKY/WX    TMP DP  RH WIND       PRES   REMARKS
POMONA         SUNNY     72  43  35 SE6       30.37S
WILDWOOD*      SUNNY     70  53  54 SE9       30.37S
MILLVILLE      SUNNY     76  55  48 SE7       30.35F
WRIGHTSTOWN    SUNNY     74  49  39 S8        30.32
MOUNT HOLLY      N/A    N/A N/A N/A MISG      30.34F
TRENTON        SUNNY     74  46  36 S10       30.35S

$$
NJZ001>014-222100-
NORTHERN NEW JERSEY

CITY           SKY/WX    TMP DP  RH WIND       PRES   REMARKS
SUSSEX         SUNNY     75  42  30 S6        30.34S
ANDOVER*         N/A     74  45  35 SW9       30.35S
MORRISTOWN     MOSUNNY   75  45  33 S7        30.34S
NEWARK         PTSUNNY   73  50  44 VRB7      30.35F
TETERBORO      MOSUNNY   79  42  26 S10       30.34S
CALDWELL       SUNNY     75  50  41 S10       30.35S
SOMERVILLE     SUNNY     77  47  34 S7        30.32F
ALLAIRE*       MOSUNNY   71  50  47 SE8       30.37
TOMS RIVER*      N/A     73  50  44 SE8       30.37S

$$
PAZ043-044-047-054-055-060>062-066>071-222100-
EASTERN PENNSYLVANIA

CITY           SKY/WX    TMP DP  RH WIND       PRES   REMARKS
PHILADELPHIA   PTSUNNY   75  48  38 S7        30.34F
NORTH PHILA    SUNNY     76  47  35 S7        30.36F
BLUE BELL*     SUNNY     72  45  37 SE5       30.36S
DOYLESTOWN     SUNNY     72  43  35 S8        30.35S
QUAKERTOWN*    SUNNY     73  45  35 S8        30.36S
PERKASIE*      FAIR      73  43  33 S3        30.36S
POTTSTOWN      SUNNY     73  44  35 VRB5      30.36S
LANCASTER      SUNNY     73  43  33 S10       30.33S
COATESVILLE    SUNNY     72  46  40 VRB6G12   30.36S
READING        SUNNY     74  46  36 S12       30.32S
ALLENTOWN      SUNNY     76  45  33 S9        30.34S
MOUNT POCONO   SUNNY     66  43  43 S7G17     30.37S
HAZLETON       SUNNY     72  41  33 S7        30.37F
LEHIGHTON      FAIR      73  41  31 SE7       30.33F
WILKES BARRE   MOSUNNY   75  42  30 VRB7      30.31F

$$
DEZALL-MDZ008-012-015-019-020-222100-
DELAWARE AND EASTERN MARYLAND

CITY           SKY/WX    TMP DP  RH WIND       PRES   REMARKS
WILMINGTON     SUNNY     73  49  42 S13       30.35F
DOVER          MOSUNNY   70  55  60 E12       30.30R
GEORGETOWN     SUNNY     75  52  44 E9        30.35S
EASTON         MOSUNNY   77  46  33 S5        30.37F
PATUXENT       PTSUNNY   71  56  58 SE8       30.32F
OCEAN CITY     SUNNY     69  61  75 SE6       30.36S
WALLOPS ISLAND SUNNY     71  62  73 SE6       30.35S
CAMBRIDGE      SUNNY     75  50  41 VRB5      30.33F
SALISBURY      SUNNY     75  51  43 E6        30.34S

$$
PAZ001-021-NYZ056-072-MDZ011-DCZ001-222100-
OTHER NEARBY LOCATIONS

CITY           SKY/WX    TMP DP  RH WIND       PRES   REMARKS
HARRISBURG     MOSUNNY   77  48  35 SE6       30.29F
STATE COLLEGE  SUNNY     72  52  49 S9G17     30.28F
WILLIAMSPORT   SUNNY     74  52  46 VRB5      30.27F
BINGHAMTON     MOSUNNY   68  45  43 SE8       30.30F
NEW YORK CITY  MOSUNNY   73  43  33 VRB5      30.38F
BALTIMORE      PTSUNNY   74  42  31 SE8       30.32F
WASHINGTON DC  PTSUNNY   76  54  46 S8        30.31F

$$



USA.gov is the U.S. government's official web portal to all federal, state and local government web resources and services.